User: anonymous   Login
Location: ActonStarParty
(42.4766°N, 71.4538°W)
Time: 02:50:54
(UTC-04:00)
Language:

ITAMSAT 1 - Orbit

View from above orbital plane
View from above orbital plane
View from above satellite
View from above satellite

Ground track
Ground track

The orbit data is extracted from the following two-line orbital elements,

1 22826U 93061D   15240.51804443  .00000040  00000-0  32668-4 0  9993
2 22826 098.7089 190.8284 0010125 088.5261 271.7081 14.30218103143427
Epoch (UTC): 28 August 2015 12:25:59
Eccentricity: 0.0010125
inclination: 98.7089°
perigee height: 784 km
apogee height: 798 km
right ascension of ascending node: 190.8284°
argument of perigee: 88.5261°
revolutions per day: 14.30218103
mean anomaly at epoch: 271.7081°
orbit number at epoch: 14342

The dashed part of the orbit path shows where the satellite is in the earth's shadow,  

DLR